Flag for South Africa Weather past 2 weeks in Rustenburg, South Africa

Now
48 °F

Clear.


Feels Like: 44 °F
Forecast: 29 / 65 °F
Wind: 9 mph from South

Location: Lanseria Civ / Mil

Current Time: Jul 31, 2015 at 8:17:24 PM

Latest Report: Jul 31, 2015 at 8:00 PM


Visibility: 10 mi

Pressure: 30.39 "Hg (26.39 "Hg at 1166m altitude)

Humidity: 29%

Dew point: 18 °F

Location of RustenburgLocation

Historic Weather in Rustenburg — Graph

°F

Rustenburg temperature yesterday

Maximum temperature yesterday: 73 °F (at 2:00 PM)
Minimum temperature yesterday: 45 °F (at 5:00 AM)
Average temperature yesterday: 56 °F

Past Weeks' High & Low Weather Summary

 TemperatureHumidityPressure
High73 °F (Jul 20, 2:00 PM)100% (Jul 25, 12:00 AM)30.48 "Hg (Jul 25, 12:00 AM)
Low32 °F (Jul 18, 5:00 AM)7% (Jul 30, 4:00 PM)30.01 "Hg (Jul 16, 7:00 PM)
Average53 °F45%30.26 "Hg
* Reported Jul 16 7:00 PM — Jul 31 7:00 PM, Rustenburg, Weather by CustomWeather, © 2015

Note: Actual official high and low records may vary slightly from our data, if they occured in-between our weather recording intervals... More about our weather records

Advertising

Rustenburg weather history for previous 24 hours

 ConditionsComfort  
Time TempWeatherWind HumidityBarometerVisibility
7:00 PM
Fri, Jul 31
50 °FClear.7 mph28%30.36 "Hg10 mi
6:00 PM52 °FPassing clouds.12 mph26%30.33 "HgN/A
5:00 PM57 °FClear.15 mph21%30.30 "Hg10 mi
4:00 PM59 °FPassing clouds.17 mph20%30.30 "HgN/A
3:00 PM59 °FSunny.18 mph21%30.27 "Hg10 mi
2:00 PM59 °FSunny.18 mph21%30.27 "Hg10 mi
1:00 PM57 °FPassing clouds.18 mph27%30.30 "HgN/A
12:00 PM55 °FPassing clouds.17 mph28%30.33 "HgN/A
11:00 AM52 °FPassing clouds.16 mph35%30.33 "HgN/A
10:00 AM50 °FSunny.17 mph43%30.33 "Hg10 mi
9:00 AM48 °FSunny.21 mph43%30.30 "Hg10 mi
8:00 AM46 °FPassing clouds.10 mph43%30.30 "HgN/A
7:00 AM43 °FPassing clouds.8 mph39%30.24 "HgN/A
6:00 AM43 °FSunny.9 mph34%30.21 "Hg10 mi
5:00 AM43 °FQuite cool.6 mph31%30.18 "HgN/A
4:00 AM37 °FChilly.5 mph38%30.18 "HgN/A
3:00 AM43 °FQuite cool.5 mph29%30.18 "HgN/A
2:00 AM43 °FQuite cool.6 mph29%30.18 "HgN/A
1:00 AM45 °FQuite cool.2 mph25%30.18 "HgN/A
12:00 AM48 °FCool.No wind20%30.18 "HgN/A
11:00 PM
Thu, Jul 30
48 °FCool.7 mph23%30.18 "HgN/A
10:00 PM48 °FPassing clouds.6 mph21%30.18 "HgN/A
9:00 PM50 °FPassing clouds.7 mph20%30.18 "HgN/A
8:00 PM54 °FClear.No wind15%30.15 "Hg10 mi
Weather by CustomWeather, © 2015

See weather overviewHow to use our weather pages